Location: El Diablo
(32.4667°N, 116.4500°W)
Time: 22:14:52
(UTC+00:00)

ARIANE 6 FM1 Upper Stage - Visible Passes

Search period start: 16 January 2026 00:00
Search period end: 26 January 2026 00:00
Orbit: 522 x 610 km, 62.0° (Epoch: 16 January)

Date Brightness Start Highest point End Pass type
(mag) Time Alt. Az. Time Alt. Az. Time Alt. Az.
16 Jan 2.4 13:15:21 41° NNW 13:16:41 90° S 13:20:43 10° SSE visible
17 Jan 5.0 03:08:00 10° S 03:08:41 14° S 03:08:41 14° S visible
17 Jan 2.6 13:16:20 49° W 13:16:50 54° WSW 13:20:47 10° SSE visible
18 Jan 4.2 03:07:53 10° SSW 03:09:53 27° S 03:09:53 27° S visible
18 Jan 3.5 13:17:23 31° SW 13:17:23 31° SW 13:20:35 10° S visible
19 Jan 3.4 03:08:00 10° SW 03:11:02 47° SW 03:11:02 47° SW visible
19 Jan 4.4 13:18:30 17° SW 13:18:30 17° SW 13:20:04 10° SSW visible
20 Jan 4.7 01:32:29 10° SE 01:33:44 11° ESE 01:34:58 10° E visible
20 Jan 3.4 03:08:20 10° SW 03:12:09 49° WNW 03:12:09 49° WNW visible
21 Jan 4.3 01:30:57 10° SSE 01:33:47 18° ESE 01:36:36 10° ENE visible
21 Jan 4.1 03:08:53 10° WSW 03:12:34 31° NW 03:13:12 30° NW visible
22 Jan 4.7 03:09:42 10° W 03:12:51 21° NW 03:14:08 18° NNW visible
23 Jan 3.0 01:30:00 10° SSW 01:33:58 46° ESE 01:37:52 10° NE visible
23 Jan 5.2 03:10:55 10° W 03:13:10 14° NW 03:15:00 11° NNW visible
24 Jan 2.6 01:29:58 10° SSW 01:34:07 77° ESE 01:38:09 10° NE visible
25 Jan 3.0 01:30:10 10° SW 01:34:16 65° WNW 01:38:17 10° NNE visible
